| time (UTC) | temp F | wind direction | speed MPH | gust MPH | rain 1hr in | rain 24hr in | rain mn in | humidity % | barometer mb |
| 20260509031047 | 51 | 168 | 3.0 | 5.0 | 0.00 | 0.07 | 0.07 | 96 | 1007.4 |
| 20260509030310 | 51 | 168 | 2.0 | 5.0 | 0.00 | 0.07 | 0.07 | 96 | 1007.6 |
| 20260509025753 | 51 | 168 | 2.0 | 5.0 | 0.00 | 0.07 | 0.07 | 96 | 1007.4 |
| 20260509025256 | 51 | 168 | 4.0 | 6.0 | 0.00 | 0.07 | 0.07 | 96 | 1007.6 |
| 20260509024746 | 51 | 168 | 4.0 | 7.0 | 0.00 | 0.07 | 0.07 | 96 | 1007.7 |
| 20260509024249 | 51 | 184 | 3.0 | 7.0 | 0.00 | 0.07 | 0.07 | 96 | 1007.7 |
| 20260509023725 | 51 | 200 | 3.0 | 5.0 | 0.00 | 0.07 | 0.07 | 96 | 1007.7 |
| 20260509023223 | 51 | 202 | 3.0 | 5.0 | 0.00 | 0.07 | 0.07 | 96 | 1007.7 |
| 20260509022707 | 51 | 173 | 3.0 | 4.0 | 0.00 | 0.07 | 0.07 | 96 | 1007.7 |
| 20260509022205 | 51 | 173 | 3.0 | 5.0 | 0.00 | 0.07 | 0.07 | 96 | 1007.7 |
| 20260509021705 | 51 | 173 | 3.0 | 7.0 | 0.00 | 0.07 | 0.07 | 96 | 1007.7 |
| 20260509021356 | 51 | 173 | 3.0 | 7.0 | 0.00 | 0.07 | 0.07 | 96 | 1007.6 |
| 20260509020645 | 51 | 178 | 4.0 | 7.0 | 0.00 | 0.07 | 0.07 | 96 | 1007.6 |
| 20260509020119 | 51 | 178 | 3.0 | 7.0 | 0.00 | 0.07 | 0.07 | 96 | 1007.7 |
| 20260509015624 | 51 | 182 | 3.0 | 6.0 | 0.00 | 0.07 | 0.07 | 96 | 1007.7 |
| 20260509015055 | 51 | 182 | 4.0 | 6.0 | 0.00 | 0.07 | 0.07 | 96 | 1007.7 |
| 20260509014555 | 51 | 184 | 4.0 | 7.0 | 0.01 | 0.07 | 0.07 | 96 | 1007.7 |
| 20260509014027 | 51 | 181 | 4.0 | 7.0 | 0.01 | 0.07 | 0.07 | 96 | 1007.7 |
| 20260509013503 | 51 | 176 | 3.0 | 7.0 | 0.01 | 0.07 | 0.07 | 96 | 1007.8 |
| 20260509012959 | 51 | 175 | 3.0 | 7.0 | 0.02 | 0.07 | 0.07 | 96 | 1007.8 |
| 20260509012656 | 51 | 177 | 3.0 | 5.0 | 0.02 | 0.07 | 0.07 | 96 | 1007.8 |
| 20260509011937 | 51 | 178 | 3.0 | 4.0 | 0.03 | 0.07 | 0.07 | 96 | 1007.7 |
| 20260509011630 | 51 | 179 | 2.0 | 4.0 | 0.04 | 0.07 | 0.07 | 95 | 1007.6 |
| 20260509010906 | 51 | 179 | 2.0 | 5.0 | 0.05 | 0.07 | 0.07 | 95 | 1007.7 |
| 20260509010316 | 51 | 179 | 2.0 | 5.0 | 0.05 | 0.07 | 0.07 | 95 | 1007.6 |
| 20260509005742 | 51 | 179 | 2.0 | 4.0 | 0.05 | 0.07 | 0.07 | 95 | 1007.6 |
| 20260509005432 | 51 | 179 | 2.0 | 4.0 | 0.05 | 0.07 | 0.07 | 95 | 1007.6 |
| 20260509004713 | 51 | 179 | 2.0 | 4.0 | 0.06 | 0.07 | 0.07 | 95 | 1007.6 |
| 20260509004151 | 51 | 179 | 1.0 | 3.0 | 0.05 | 0.06 | 0.06 | 94 | 1007.6 |
| 20260509003654 | 51 | 179 | 1.0 | 2.0 | 0.05 | 0.06 | 0.06 | 94 | 1007.7 |
| 20260509003332 | 51 | 179 | 1.0 | 3.0 | 0.05 | 0.05 | 0.05 | 94 | 1007.6 |
| 20260509002520 | 51 | 179 | 0.0 | 3.0 | 0.05 | 0.05 | 0.05 | 94 | 1007.6 |
| 20260509002202 | 51 | 179 | 0.0 | 0.0 | 0.04 | 0.04 | 0.04 | 94 | 1007.6 |
| 20260509001643 | 51 | 179 | 0.0 | 0.0 | 0.03 | 0.03 | 0.03 | 93 | 1007.7 |
| 20260509001049 | 51 | 179 | 0.0 | 0.0 | 0.02 | 0.02 | 0.02 | 93 | 1007.6 |
| 20260509000307 | 51 | 179 | 0.0 | 2.0 | 0.02 | 0.02 | 0.02 | 93 | 1007.6 |
| 20260508235753 | 51 | 179 | 1.0 | 3.0 | 0.02 | 0.02 | 0.02 | 92 | 1007.6 |
| 20260508235205 | 52 | 179 | 1.0 | 4.0 | 0.02 | 0.02 | 0.02 | 92 | 1007.6 |
| 20260508234638 | 52 | 179 | 1.0 | 4.0 | 0.01 | 0.01 | 0.01 | 91 | 1007.7 |
| 20260508234141 | 52 | 179 | 2.0 | 4.0 | 0.01 | 0.01 | 0.01 | 90 | 1007.6 |
| 20260508233609 | 52 | 179 | 2.0 | 5.0 | 0.01 | 0.01 | 0.01 | 90 | 1007.7 |
| 20260508233111 | 53 | 179 | 3.0 | 5.0 | 0.00 | 0.00 | 0.00 | 89 | 1007.7 |
| 20260508232545 | 53 | 178 | 3.0 | 5.0 | 0.00 | 0.00 | 0.00 | 89 | 1007.4 |
| 20260508232041 | 53 | 178 | 2.0 | 5.0 | 0.00 | 0.00 | 0.00 | 88 | 1007.6 |
| 20260508231504 | 53 | 178 | 2.0 | 4.0 | 0.00 | 0.00 | 0.00 | 88 | 1007.6 |
| 20260508231008 | 53 | 178 | 2.0 | 3.0 | 0.00 | 0.00 | 0.00 | 88 | 1007.6 |
| 20260508230703 | 53 | 178 | 1.0 | 4.0 | 0.00 | 0.00 | 0.00 | 87 | 1007.7 |
| 20260508225940 | 54 | 178 | 0.0 | 3.0 | 0.00 | 0.00 | 0.00 | 87 | 1007.7 |
| 20260508225628 | 54 | 178 | 1.0 | 4.0 | 0.00 | 0.00 | 0.00 | 86 | 1007.6 |
| 20260508224815 | 54 | 178 | 1.0 | 4.0 | 0.00 | 0.00 | 0.00 | 85 | 1007.6 |
| 20260508224252 | 54 | 179 | 0.0 | 0.0 | 0.00 | 0.00 | 0.00 | 84 | 1007.7 |
| 20260508223720 | 55 | 179 | 0.0 | 0.0 | 0.00 | 0.00 | 0.00 | 83 | 1007.9 |
| 20260508223158 | 55 | 179 | 0.0 | 0.0 | 0.00 | 0.00 | 0.00 | 82 | 1007.9 |
| 20260508222608 | 55 | 179 | 0.0 | 0.0 | 0.00 | 0.00 | 0.00 | 80 | 1007.8 |
| 20260508222038 | 56 | 179 | 0.0 | 0.0 | 0.00 | 0.00 | 0.00 | 79 | 1007.9 |
| 20260508221541 | 56 | 179 | 1.0 | 5.0 | 0.00 | 0.00 | 0.00 | 78 | 1007.9 |
| 20260508221006 | 56 | 179 | 1.0 | 5.0 | 0.00 | 0.00 | 0.00 | 76 | 1007.9 |
| 20260508220434 | 56 | 178 | 1.0 | 4.0 | 0.00 | 0.00 | 0.00 | 76 | 1007.9 |
| 20260508215915 | 57 | 178 | 0.0 | 3.0 | 0.00 | 0.00 | 0.00 | 76 | 1007.9 |
| 20260508215411 | 57 | 174 | 0.0 | 4.0 | 0.00 | 0.00 | 0.00 | 74 | 1007.8 |
| 20260508215112 | 57 | 173 | 0.0 | 4.0 | 0.00 | 0.00 | 0.00 | 75 | 1007.9 |
| 20260508214354 | 57 | 173 | 1.0 | 7.0 | 0.00 | 0.00 | 0.00 | 74 | 1007.9 |
| 20260508213833 | 58 | 173 | 1.0 | 7.0 | 0.00 | 0.00 | 0.00 | 73 | 1008.1 |
| 20260508213306 | 58 | 276 | 0.0 | 0.0 | 0.00 | 0.00 | 0.00 | 74 | 1008.2 |
| 20260508212732 | 58 | 276 | 0.0 | 0.0 | 0.00 | 0.00 | 0.00 | 73 | 1008.0 |
| 20260508212154 | 58 | 276 | 0.0 | 0.0 | 0.00 | 0.00 | 0.00 | 73 | 1008.1 |
| 20260508211645 | 58 | 276 | 0.0 | 0.0 | 0.00 | 0.00 | 0.00 | 72 | 1008.0 |
| 20260508211140 | 58 | 276 | 0.0 | 0.0 | 0.00 | 0.00 | 0.00 | 73 | 1008.1 |
| 20260508210556 | 58 | 276 | 0.0 | 0.0 | 0.00 | 0.00 | 0.00 | 72 | 1008.1 |
| 20260508210011 | 58 | 276 | 0.0 | 0.0 | 0.00 | 0.00 | 0.00 | 72 | 1008.2 |
| 20260508205431 | 58 | 276 | 0.0 | 0.0 | 0.00 | 0.00 | 0.00 | 73 | 1008.3 |
| 20260508204850 | 58 | 276 | 0.0 | 0.0 | 0.00 | 0.00 | 0.00 | 73 | 1008.2 |
| 20260508204307 | 58 | 275 | 0.0 | 0.0 | 0.00 | 0.00 | 0.00 | 72 | 1008.3 |
| 20260508203723 | 58 | 275 | 0.0 | 0.0 | 0.00 | 0.00 | 0.00 | 72 | 1008.5 |
| 20260508203144 | 58 | 275 | 0.0 | 2.0 | 0.00 | 0.00 | 0.00 | 72 | 1008.6 |
| 20260508202612 | 58 | 275 | 0.0 | 0.0 | 0.00 | 0.00 | 0.00 | 72 | 1008.7 |
| 20260508202046 | 58 | 275 | 0.0 | 0.0 | 0.00 | 0.00 | 0.00 | 71 | 1008.7 |
| 20260508201527 | 58 | 275 | 0.0 | 0.0 | 0.00 | 0.00 | 0.00 | 71 | 1008.5 |
| 20260508200944 | 58 | 275 | 0.0 | 2.0 | 0.00 | 0.00 | 0.00 | 72 | 1008.7 |
| 20260508200440 | 58 | 275 | 0.0 | 2.0 | 0.00 | 0.00 | 0.00 | 71 | 1008.7 |
| 20260508195939 | 58 | 265 | 0.0 | 4.0 | 0.00 | 0.00 | 0.00 | 71 | 1008.7 |
| 20260508195438 | 58 | 262 | 1.0 | 4.0 | 0.00 | 0.00 | 0.00 | 70 | 1008.7 |
| 20260508194942 | 59 | 243 | 1.0 | 3.0 | 0.00 | 0.00 | 0.00 | 69 | 1008.8 |
| 20260508194645 | 59 | 189 | 1.0 | 5.0 | 0.00 | 0.00 | 0.00 | 69 | 1008.7 |
| 20260508193901 | 60 | 302 | 1.0 | 6.0 | 0.00 | 0.00 | 0.00 | 67 | 1008.8 |
| 20260508193345 | 60 | 306 | 1.0 | 6.0 | 0.00 | 0.00 | 0.00 | 68 | 1008.9 |
| 20260508192848 | 60 | 310 | 0.0 | 3.0 | 0.00 | 0.00 | 0.00 | 68 | 1008.9 |
| 20260508192313 | 60 | 310 | 0.0 | 3.0 | 0.00 | 0.00 | 0.00 | 67 | 1008.9 |
| 20260508191742 | 60 | 310 | 1.0 | 5.0 | 0.00 | 0.00 | 0.00 | 68 | 1008.8 |
| 20260508191441 | 59 | 313 | 1.0 | 5.0 | 0.00 | 0.00 | 0.00 | 68 | 1008.8 |
| 20260508190716 | 59 | 265 | 1.0 | 3.0 | 0.00 | 0.00 | 0.00 | 69 | 1008.9 |
| 20260508190220 | 59 | 259 | 1.0 | 4.0 | 0.00 | 0.00 | 0.00 | 71 | 1008.9 |
| 20260508190201 | 58 | 259 | 2.0 | 9.0 | 0.00 | 0.00 | 0.00 | 70 | 1009.0 |
| 20260508185206 | 58 | 322 | 1.0 | 5.0 | 0.00 | 0.00 | 0.00 | 71 | 1009.1 |
| 20260508184652 | 58 | 279 | 1.0 | 4.0 | 0.00 | 0.00 | 0.00 | 72 | 1009.1 |
| 20260508184156 | 58 | 294 | 2.0 | 4.0 | 0.00 | 0.00 | 0.00 | 72 | 1009.1 |
| 20260508183626 | 58 | 292 | 1.0 | 4.0 | 0.00 | 0.00 | 0.00 | 71 | 1009.1 |
| 20260508183050 | 58 | 292 | 1.0 | 5.0 | 0.00 | 0.00 | 0.00 | 71 | 1009.1 |
| 20260508182511 | 58 | 321 | 1.0 | 5.0 | 0.00 | 0.00 | 0.00 | 70 | 1009.3 |
| 20260508182012 | 58 | 296 | 1.0 | 4.0 | 0.00 | 0.00 | 0.00 | 72 | 1009.4 |
| 20260508181433 | 58 | 296 | 1.0 | 5.0 | 0.00 | 0.00 | 0.00 | 73 | 1009.5 |
| 20260508180856 | 58 | 246 | 0.0 | 5.0 | 0.00 | 0.00 | 0.00 | 72 | 1009.6 |
| 20260508180344 | 58 | 331 | 0.0 | 3.0 | 0.00 | 0.00 | 0.00 | 72 | 1009.7 |
| 20260508180035 | 58 | 348 | 1.0 | 4.0 | 0.00 | 0.00 | 0.00 | 72 | 1009.7 |
| 20260508175457 | 58 | 348 | 1.0 | 5.0 | 0.00 | 0.00 | 0.00 | 71 | 1009.8 |
| 20260508174714 | 58 | 306 | 1.0 | 4.0 | 0.00 | 0.00 | 0.00 | 72 | 1009.8 |
| 20260508174358 | 57 | 292 | 1.0 | 4.0 | 0.00 | 0.00 | 0.00 | 72 | 1009.9 |
| 20260508173610 | 58 | 303 | 1.0 | 4.0 | 0.00 | 0.00 | 0.00 | 72 | 1009.9 |
| 20260508173322 | 58 | 301 | 1.0 | 3.0 | 0.00 | 0.00 | 0.00 | 71 | 1010.1 |
| 20260508172532 | 58 | 279 | 0.0 | 5.0 | 0.00 | 0.00 | 0.00 | 72 | 1010.1 |
| 20260508171956 | 57 | 252 | 1.0 | 5.0 | 0.00 | 0.00 | 0.00 | 73 | 1010.1 |
| 20260508171645 | 57 | 242 | 1.0 | 5.0 | 0.00 | 0.00 | 0.00 | 73 | 1009.9 |
| 20260508171116 | 56 | 304 | 0.0 | 4.0 | 0.00 | 0.00 | 0.00 | 74 | 1009.9 |
| 20260508170324 | 56 | 262 | 0.0 | 0.0 | 0.00 | 0.00 | 0.00 | 76 | 1010.0 |
| 20260508165820 | 56 | 232 | 0.0 | 0.0 | 0.00 | 0.00 | 0.00 | 77 | 1010.2 |
| 20260508165512 | 55 | 232 | 0.0 | 0.0 | 0.00 | 0.00 | 0.00 | 78 | 1010.1 |
| 20260508164757 | 54 | 232 | 0.0 | 1.0 | 0.00 | 0.00 | 0.00 | 78 | 1010.3 |
| 20260508164225 | 54 | 231 | 0.0 | 1.0 | 0.00 | 0.00 | 0.00 | 77 | 1010.3 |
| 20260508163723 | 54 | 229 | 0.0 | 3.0 | 0.00 | 0.00 | 0.00 | 77 | 1010.3 |
| 20260508163409 | 54 | 288 | 0.0 | 6.0 | 0.00 | 0.00 | 0.00 | 77 | 1010.3 |
| 20260508162607 | 54 | 323 | 0.0 | 0.0 | 0.00 | 0.00 | 0.00 | 78 | 1010.3 |
| 20260508162058 | 53 | 323 | 0.0 | 1.0 | 0.00 | 0.00 | 0.00 | 78 | 1010.3 |
| 20260508161748 | 53 | 323 | 0.0 | 3.0 | 0.00 | 0.00 | 0.00 | 79 | 1010.3 |
| 20260508160958 | 53 | 323 | 0.0 | 3.0 | 0.00 | 0.00 | 0.00 | 79 | 1010.3 |
| 20260508160428 | 53 | 319 | 0.0 | 6.0 | 0.00 | 0.00 | 0.00 | 78 | 1010.4 |
| 20260508155917 | 53 | 319 | 1.0 | 6.0 | 0.00 | 0.00 | 0.00 | 79 | 1010.5 |
| 20260508155344 | 53 | 317 | 1.0 | 4.0 | 0.00 | 0.00 | 0.00 | 78 | 1010.6 |
| 20260508154806 | 53 | 323 | 1.0 | 4.0 | 0.00 | 0.00 | 0.00 | 78 | 1010.6 |
| 20260508154227 | 52 | 324 | 1.0 | 4.0 | 0.00 | 0.00 | 0.00 | 77 | 1010.6 |
| 20260508153714 | 52 | 324 | 0.0 | 3.0 | 0.00 | 0.00 | 0.00 | 77 | 1010.6 |
| 20260508153216 | 53 | 265 | 0.0 | 4.0 | 0.00 | 0.00 | 0.00 | 77 | 1010.5 |
| 20260508152914 | 53 | 257 | 0.0 | 4.0 | 0.00 | 0.00 | 0.00 | 77 | 1010.5 |
| 20260508152158 | 53 | 235 | 1.0 | 4.0 | 0.00 | 0.00 | 0.00 | 77 | 1010.5 |
| 20260508151640 | 53 | 269 | 0.0 | 3.0 | 0.00 | 0.00 | 0.00 | 77 | 1010.5 |
| 20260508151110 | 53 | 268 | 0.0 | 3.0 | 0.00 | 0.00 | 0.00 | 77 | 1010.5 |
| 20260508150557 | 53 | 198 | 0.0 | 3.0 | 0.00 | 0.00 | 0.00 | 78 | 1010.4 |
| 20260508150052 | 53 | 198 | 0.0 | 3.0 | 0.00 | 0.00 | 0.00 | 77 | 1010.3 |
| 20260508145548 | 53 | 219 | 0.0 | 0.0 | 0.00 | 0.00 | 0.00 | 78 | 1010.3 |
| 20260508145247 | 52 | 294 | 0.0 | 2.0 | 0.00 | 0.00 | 0.00 | 78 | 1010.3 |
| 20260508144754 | 52 | 294 | 0.0 | 2.0 | 0.00 | 0.00 | 0.00 | 79 | 1010.3 |
| 20260508144014 | 52 | 339 | 0.0 | 0.0 | 0.00 | 0.00 | 0.00 | 80 | 1010.2 |
| 20260508143518 | 52 | 339 | 0.0 | 3.0 | 0.00 | 0.00 | 0.00 | 82 | 1010.2 |
| 20260508142956 | 51 | 338 | 0.0 | 3.0 | 0.00 | 0.00 | 0.00 | 81 | 1010.3 |
| 20260508142440 | 51 | 302 | 0.0 | 0.0 | 0.00 | 0.00 | 0.00 | 80 | 1010.3 |
| 20260508142420 | 51 | 304 | 0.0 | 3.0 | 0.00 | 0.00 | 0.00 | 79 | 1010.3 |
| 20260508141400 | 51 | 301 | 1.0 | 6.0 | 0.00 | 0.00 | 0.00 | 79 | 1010.3 |
| 20260508140834 | 51 | 301 | 1.0 | 6.0 | 0.00 | 0.00 | 0.00 | 80 | 1010.3 |
| 20260508140334 | 51 | 292 | 0.0 | 4.0 | 0.00 | 0.00 | 0.00 | 80 | 1010.3 |
| 20260508135813 | 51 | 322 | 0.0 | 5.0 | 0.00 | 0.00 | 0.00 | 81 | 1010.3 |
| 20260508135321 | 51 | 322 | 1.0 | 5.0 | 0.00 | 0.00 | 0.00 | 80 | 1010.4 |
| 20260508134758 | 51 | 223 | 1.0 | 4.0 | 0.00 | 0.00 | 0.00 | 81 | 1010.3 |
| 20260508134300 | 50 | 211 | 0.0 | 3.0 | 0.00 | 0.00 | 0.00 | 81 | 1010.4 |
| 20260508133748 | 50 | 198 | 0.0 | 0.0 | 0.00 | 0.00 | 0.00 | 81 | 1010.4 |
| 20260508133257 | 50 | 197 | 0.0 | 0.0 | 0.00 | 0.00 | 0.00 | 81 | 1010.4 |
| 20260508132136 | 50 | 197 | 0.0 | 1.0 | 0.00 | 0.00 | 0.00 | 80 | 1010.6 |
| 20260508131635 | 50 | 184 | 0.0 | 3.0 | 0.00 | 0.00 | 0.00 | 80 | 1010.6 |
| 20260508131108 | 50 | 184 | 0.0 | 3.0 | 0.00 | 0.00 | 0.00 | 81 | 1010.6 |
| 20260508130606 | 50 | 184 | 0.0 | 0.0 | 0.00 | 0.00 | 0.00 | 80 | 1010.6 |
| 20260508130056 | 50 | 184 | 0.0 | 1.0 | 0.00 | 0.00 | 0.00 | 80 | 1010.6 |
| 20260508125550 | 50 | 184 | 0.0 | 2.0 | 0.00 | 0.00 | 0.00 | 80 | 1010.5 |
| 20260508125046 | 50 | 186 | 0.0 | 2.0 | 0.00 | 0.00 | 0.00 | 80 | 1010.4 |
| 20260508124529 | 50 | 184 | 0.0 | 3.0 | 0.00 | 0.00 | 0.00 | 80 | 1010.3 |
| 20260508124024 | 50 | 184 | 0.0 | 3.0 | 0.00 | 0.00 | 0.00 | 81 | 1010.3 |
| 20260508123454 | 49 | 182 | 0.0 | 0.0 | 0.00 | 0.00 | 0.00 | 81 | 1010.2 |
| 20260508122950 | 49 | 182 | 0.0 | 0.0 | 0.00 | 0.00 | 0.00 | 80 | 1010.1 |
| 20260508122422 | 49 | 178 | 0.0 | 0.0 | 0.00 | 0.00 | 0.00 | 81 | 1010.0 |
| 20260508121832 | 49 | 178 | 0.0 | 0.0 | 0.00 | 0.00 | 0.00 | 81 | 1010.0 |
| 20260508121313 | 49 | 178 | 0.0 | 0.0 | 0.00 | 0.00 | 0.00 | 81 | 1010.0 |
| 20260508120938 | 49 | 178 | 0.0 | 0.0 | 0.00 | 0.00 | 0.00 | 82 | 1010.2 |
| 20260508120134 | 48 | 178 | 0.0 | 0.0 | 0.00 | 0.00 | 0.00 | 81 | 1010.1 |
| 20260508115558 | 48 | 178 | 0.0 | 0.0 | 0.00 | 0.00 | 0.00 | 82 | 1010.0 |
| 20260508115058 | 48 | 178 | 0.0 | 0.0 | 0.00 | 0.00 | 0.00 | 82 | 1009.8 |
| 20260508114513 | 48 | 178 | 0.0 | 0.0 | 0.00 | 0.00 | 0.00 | 82 | 1009.6 |
| 20260508113952 | 48 | 178 | 0.0 | 0.0 | 0.00 | 0.00 | 0.00 | 83 | 1009.7 |
| 20260508113438 | 47 | 178 | 0.0 | 0.0 | 0.00 | 0.00 | 0.00 | 83 | 1009.6 |
| 20260508112911 | 47 | 178 | 0.0 | 0.0 | 0.00 | 0.00 | 0.00 | 83 | 1009.6 |
| 20260508112314 | 47 | 178 | 0.0 | 0.0 | 0.00 | 0.00 | 0.00 | 83 | 1009.6 |
| 20260508111951 | 47 | 178 | 0.0 | 0.0 | 0.00 | 0.00 | 0.00 | 83 | 1009.6 |
| 20260508111155 | 47 | 178 | 0.0 | 0.0 | 0.00 | 0.00 | 0.00 | 83 | 1009.6 |
| 20260508110652 | 47 | 178 | 0.0 | 0.0 | 0.00 | 0.00 | 0.00 | 84 | 1009.5 |
| 20260508110141 | 47 | 178 | 0.0 | 0.0 | 0.00 | 0.00 | 0.00 | 84 | 1009.6 |
| 20260508105612 | 46 | 178 | 0.0 | 0.0 | 0.00 | 0.00 | 0.00 | 84 | 1009.5 |
| 20260508105339 | 46 | 178 | 0.0 | 0.0 | 0.00 | 0.00 | 0.00 | 84 | 1009.4 |
| 20260508104735 | 46 | 178 | 0.0 | 0.0 | 0.00 | 0.00 | 0.00 | 84 | 1009.6 |
| 20260508103953 | 46 | 178 | 0.0 | 0.0 | 0.00 | 0.00 | 0.00 | 84 | 1009.4 |
| 20260508103644 | 46 | 178 | 1.0 | 1.0 | 0.00 | 0.00 | 0.00 | 84 | 1009.4 |
| 20260508103051 | 46 | 178 | 1.0 | 3.0 | 0.00 | 0.00 | 0.00 | 83 | 1009.3 |
| 20260508102455 | 46 | 178 | 0.0 | 4.0 | 0.00 | 0.00 | 0.00 | 82 | 1009.2 |
| 20260508101648 | 46 | 178 | 0.0 | 4.0 | 0.00 | 0.00 | 0.00 | 82 | 1009.2 |
| 20260508101058 | 46 | 178 | 0.0 | 1.0 | 0.00 | 0.00 | 0.00 | 82 | 1009.2 |
| 20260508100540 | 46 | 178 | 1.0 | 5.0 | 0.00 | 0.00 | 0.00 | 81 | 1009.4 |
| 20260508100208 | 47 | 178 | 0.0 | 5.0 | 0.00 | 0.00 | 0.00 | 81 | 1009.4 |
| 20260508095405 | 47 | 178 | 0.0 | 0.0 | 0.00 | 0.00 | 0.00 | 81 | 1009.4 |
| 20260508094828 | 47 | 178 | 0.0 | 0.0 | 0.00 | 0.00 | 0.00 | 81 | 1009.5 |
| 20260508094310 | 47 | 178 | 0.0 | 0.0 | 0.00 | 0.00 | 0.00 | 81 | 1009.6 |
| 20260508093809 | 47 | 178 | 0.0 | 0.0 | 0.00 | 0.00 | 0.00 | 81 | 1009.5 |
| 20260508093236 | 47 | 178 | 0.0 | 0.0 | 0.00 | 0.00 | 0.00 | 81 | 1009.5 |
| 20260508092727 | 47 | 178 | 0.0 | 0.0 | 0.00 | 0.00 | 0.00 | 80 | 1009.5 |
| 20260508092224 | 47 | 178 | 0.0 | 0.0 | 0.00 | 0.00 | 0.00 | 80 | 1009.5 |
| 20260508091634 | 47 | 178 | 0.0 | 0.0 | 0.00 | 0.00 | 0.00 | 79 | 1009.6 |
| 20260508091043 | 47 | 178 | 0.0 | 2.0 | 0.00 | 0.00 | 0.00 | 79 | 1009.6 |
| 20260508090516 | 47 | 178 | 0.0 | 2.0 | 0.00 | 0.00 | 0.00 | 79 | 1009.6 |
| 20260508085948 | 47 | 178 | 1.0 | 4.0 | 0.00 | 0.00 | 0.00 | 79 | 1009.6 |
| 20260508085414 | 47 | 177 | 1.0 | 6.0 | 0.00 | 0.00 | 0.00 | 78 | 1009.6 |
| 20260508084910 | 47 | 198 | 1.0 | 6.0 | 0.00 | 0.00 | 0.00 | 78 | 1009.6 |
| 20260508084402 | 47 | 175 | 2.0 | 6.0 | 0.00 | 0.00 | 0.00 | 77 | 1009.6 |
| 20260508083855 | 47 | 215 | 2.0 | 3.0 | 0.00 | 0.00 | 0.00 | 77 | 1009.6 |
| 20260508083352 | 48 | 215 | 1.0 | 7.0 | 0.00 | 0.00 | 0.00 | 77 | 1009.5 |
| 20260508083105 | 48 | 215 | 0.0 | 7.0 | 0.00 | 0.00 | 0.00 | 76 | 1009.6 |
| 20260508082336 | 48 | 174 | 1.0 | 3.0 | 0.00 | 0.00 | 0.00 | 76 | 1009.6 |
| 20260508081824 | 48 | 171 | 1.0 | 11.0 | 0.00 | 0.00 | 0.00 | 75 | 1009.6 |
| 20260508081306 | 48 | 171 | 1.0 | 11.0 | 0.00 | 0.00 | 0.00 | 75 | 1009.8 |
| 20260508080807 | 48 | 148 | 1.0 | 5.0 | 0.00 | 0.00 | 0.00 | 75 | 1009.7 |
| 20260508080441 | 48 | 148 | 1.0 | 5.0 | 0.00 | 0.00 | 0.00 | 74 | 1009.8 |
| 20260508075656 | 48 | 165 | 0.0 | 4.0 | 0.00 | 0.00 | 0.00 | 74 | 1009.8 |
| 20260508075202 | 47 | 164 | 0.0 | 2.0 | 0.00 | 0.00 | 0.00 | 74 | 1009.7 |
| 20260508074621 | 47 | 164 | 0.0 | 3.0 | 0.00 | 0.00 | 0.00 | 74 | 1009.7 |
| 20260508074038 | 47 | 164 | 0.0 | 3.0 | 0.00 | 0.00 | 0.00 | 74 | 1009.6 |
| 20260508073542 | 47 | 192 | 0.0 | 2.0 | 0.00 | 0.00 | 0.00 | 74 | 1009.7 |
| 20260508072956 | 47 | 192 | 2.0 | 5.0 | 0.00 | 0.00 | 0.00 | 74 | 1009.5 |
| 20260508072427 | 47 | 192 | 2.0 | 5.0 | 0.00 | 0.00 | 0.00 | 74 | 1009.5 |
| 20260508072112 | 46 | 190 | 2.0 | 5.0 | 0.00 | 0.00 | 0.00 | 75 | 1009.5 |
| 20260508071341 | 46 | 190 | 2.0 | 5.0 | 0.00 | 0.00 | 0.00 | 75 | 1009.5 |
| 20260508071107 | 46 | 192 | 3.0 | 4.0 | 0.00 | 0.00 | 0.00 | 76 | 1009.5 |
| 20260508070758 | 46 | 192 | 3.0 | 4.0 | 0.00 | 0.00 | 0.00 | 76 | 1009.6 |
| 20260508065749 | 46 | 192 | 3.0 | 4.0 | 0.00 | 0.00 | 0.00 | 76 | 1009.5 |
| 20260508065215 | 46 | 192 | 2.0 | 4.0 | 0.00 | 0.00 | 0.00 | 75 | 1009.6 |
| 20260508064930 | 46 | 192 | 1.0 | 3.0 | 0.00 | 0.00 | 0.00 | 75 | 1009.5 |
| 20260508064213 | 46 | 192 | 0.0 | 1.0 | 0.00 | 0.00 | 0.00 | 75 | 1009.6 |
| 20260508063638 | 46 | 192 | 0.0 | 1.0 | 0.00 | 0.00 | 0.00 | 74 | 1009.5 |
| 20260508063100 | 46 | 192 | 0.0 | 0.0 | 0.00 | 0.00 | 0.00 | 74 | 1009.5 |
| 20260508062529 | 47 | 192 | 0.0 | 0.0 | 0.00 | 0.00 | 0.00 | 73 | 1009.6 |
| 20260508061952 | 47 | 192 | 0.0 | 0.0 | 0.00 | 0.00 | 0.00 | 73 | 1009.8 |
| 20260508061417 | 47 | 192 | 1.0 | 2.0 | 0.00 | 0.00 | 0.00 | 72 | 1009.8 |
| 20260508061059 | 47 | 192 | 1.0 | 3.0 | 0.00 | 0.00 | 0.00 | 72 | 1009.8 |
| 20260508060307 | 47 | 192 | 2.0 | 3.0 | 0.00 | 0.00 | 0.00 | 72 | 1009.9 |
| 20260508055955 | 47 | 192 | 2.0 | 3.0 | 0.00 | 0.00 | 0.00 | 72 | 1010.0 |
| 20260508055159 | 47 | 192 | 2.0 | 3.0 | 0.00 | 0.00 | 0.00 | 71 | 1010.0 |
| 20260508054622 | 47 | 192 | 1.0 | 3.0 | 0.00 | 0.00 | 0.00 | 71 | 1010.1 |
| 20260508054053 | 47 | 192 | 2.0 | 3.0 | 0.00 | 0.00 | 0.00 | 71 | 1010.1 |
| 20260508053953 | 47 | 192 | 2.0 | 3.0 | 0.00 | 0.00 | 0.00 | 71 | 1010.1 |
| 20260508053206 | 47 | 192 | 2.0 | 3.0 | 0.00 | 0.00 | 0.00 | 70 | 1010.2 |
| 20260508052413 | 47 | 192 | 2.0 | 3.0 | 0.00 | 0.00 | 0.00 | 70 | 1010.3 |
| 20260508051840 | 47 | 192 | 1.0 | 3.0 | 0.00 | 0.00 | 0.00 | 69 | 1010.3 |
| 20260508051321 | 47 | 192 | 1.0 | 2.0 | 0.00 | 0.00 | 0.00 | 69 | 1010.3 |
| 20260508050813 | 47 | 192 | 1.0 | 2.0 | 0.00 | 0.00 | 0.00 | 68 | 1010.5 |
| 20260508050241 | 47 | 192 | 1.0 | 3.0 | 0.00 | 0.00 | 0.00 | 67 | 1010.6 |
| 20260508045712 | 47 | 192 | 1.0 | 3.0 | 0.00 | 0.00 | 0.00 | 67 | 1010.5 |
| 20260508045433 | 47 | 192 | 1.0 | 3.0 | 0.00 | 0.00 | 0.00 | 67 | 1010.6 |
| 20260508044711 | 47 | 192 | 0.0 | 3.0 | 0.00 | 0.00 | 0.00 | 66 | 1010.5 |
| 20260508044141 | 47 | 196 | 0.0 | 1.0 | 0.00 | 0.00 | 0.00 | 66 | 1010.5 |
| 20260508043609 | 47 | 196 | 0.0 | 0.0 | 0.00 | 0.00 | 0.00 | 66 | 1010.5 |
| 20260508043258 | 47 | 175 | 0.0 | 2.0 | 0.00 | 0.00 | 0.00 | 66 | 1010.6 |
| 20260508042505 | 47 | 173 | 0.0 | 5.0 | 0.00 | 0.00 | 0.00 | 67 | 1010.5 |
| 20260508041937 | 46 | 284 | 0.0 | 0.0 | 0.00 | 0.00 | 0.00 | 69 | 1010.5 |
| 20260508041402 | 46 | 284 | 0.0 | 0.0 | 0.00 | 0.00 | 0.00 | 71 | 1010.5 |
| 20260508040829 | 46 | 284 | 0.0 | 0.0 | 0.00 | 0.00 | 0.00 | 71 | 1010.3 |
| 20260508040303 | 45 | 294 | 0.0 | 0.0 | 0.00 | 0.00 | 0.00 | 74 | 1010.2 |
| 20260508035952 | 45 | 294 | 0.0 | 0.0 | 0.00 | 0.00 | 0.00 | 74 | 1010.3 |
| 20260508035201 | 45 | 295 | 0.0 | 0.0 | 0.00 | 0.00 | 0.00 | 74 | 1010.3 |
| 20260508034625 | 45 | 295 | 0.0 | 0.0 | 0.00 | 0.00 | 0.00 | 75 | 1010.3 |
| 20260508034055 | 45 | 295 | 0.0 | 0.0 | 0.00 | 0.00 | 0.00 | 75 | 1010.3 |
| 20260508033523 | 45 | 295 | 0.0 | 0.0 | 0.00 | 0.00 | 0.00 | 74 | 1010.3 |
| 20260508033007 | 44 | 295 | 0.0 | 0.0 | 0.00 | 0.00 | 0.00 | 74 | 1010.2 |
| 20260508032709 | 44 | 295 | 0.0 | 0.0 | 0.00 | 0.00 | 0.00 | 76 | 1010.1 |
| 20260508031911 | 44 | 296 | 0.0 | 0.0 | 0.00 | 0.00 | 0.00 | 76 | 1010.0 |
| 20260508031356 | 44 | 296 | 0.0 | 0.0 | 0.00 | 0.00 | 0.00 | 76 | 1010.1 |